sat.trackr.live / text

‹ back to catalog

UNKNOWN

NORAD 82965

UNKNOWN UNKNOWN UNKNOWN

§ Identity

Operator
Country
Launch date
Launch site
Launch vehicle
Mass (kg)
RCS (m²)

External: N2YO · Heavens-Above

§ Orbital elements

Epoch: 2026-09-18T11:17:24.276768Z

Period
105.84 min
Inclination
100.1081°
Eccentricity
0.0003221
Mean motion
13.60525805 rev/d
Perigee alt
1,031.4 km
Apogee alt
1,036.2 km
Semi-major
7,411.9 km
B*
9.1768e-4
RAAN
355.0446°
Arg perigee
144.8200°
Mean anomaly
215.3152°
Rev number
56,248

§ Raw data

UNKNOWN1 82965U          26261.47041987  .00000643  00000+0  91768-3 0  99932 82965 100.1081 355.0446 0003221 144.8200 215.3152 13.60525805562486

JSON: /api/v1/satellites/82965 · /tle

For live sub-satellite position, see the globe view (requires WebGL).

§ Visibility from observer

Set your observer location to see the next 7 days of passes ≥ 10°. The values pass through the URL so the page stays shareable.

No JS? Fill the form by hand. The geolocation button needs JavaScript.